FW9794 Weather Reports


time (UTC)temp
C
wind
direction
speed
KPH
gust
KPH
rain 1hr
cm
rain 24hr
cm
rain mn
cm
humidity
%
barometer
mb
20260505164556 25 360 6.4 24.1 0.00 0.00 0.00 44 1014.0
20260505164048 25 360 6.4 22.5 0.00 0.00 0.00 43 1014.0
20260505163548 25 360 8.0 22.5 0.00 0.00 0.00 44 1014.0
20260505163053 25 360 4.8 17.7 0.00 0.00 0.00 43 1014.1
20260505162547 26 224 6.4 22.5 0.00 0.00 0.00 42 1014.1
20260505162049 26 250 6.4 22.5 0.00 0.00 0.00 44 1014.1
20260505161616 26 265 6.4 25.7 0.00 0.00 0.00 43 1014.1
20260505161049 25 360 8.0 25.7 0.00 0.00 0.00 45 1014.0
20260505160546 25 360 4.8 20.9 0.00 0.00 0.00 47 1013.9
20260505153103 25 263 3.2 14.5 0.00 0.00 0.00 45 1013.7
20260505152548 25 261 3.2 14.5 0.00 0.00 0.00 47 1013.8
20260505152048 25 204 3.2 14.5 0.00 0.00 0.00 49 1013.8
20260505151605 24 0 1.6 11.3 0.00 0.00 0.00 49 1013.8
20260505151051 24 194 3.2 12.9 0.00 0.00 0.00 50 1013.9
20260505150549 24 201 1.6 12.9 0.00 0.00 0.00 49 1013.9
20260505140548 18 360 0.0 4.8 0.00 0.00 0.00 70 1014.1
20260505124556 13 0 0.0 0.0 0.00 0.00 0.00 88 1013.8
20260505124049 12 0 0.0 1.6 0.00 0.00 0.00 90 1013.8
20260505123549 12 0 0.0 1.6 0.00 0.00 0.00 90 1013.6
20260505123105 12 0 0.0 1.6 0.00 0.00 0.00 91 1013.6
20260505122549 12 0 0.0 3.2 0.00 0.00 0.00 92 1013.5
20260505122050 11 360 0.0 3.2 0.00 0.00 0.00 92 1013.5
20260505121613 11 360 1.6 3.2 0.00 0.00 0.00 91 1013.5
20260505121049 10 0 0.0 1.6 0.00 0.00 0.00 91 1013.4
20260505120545 10 0 0.0 1.6 0.00 0.00 0.00 92 1013.6
20260505120056 10 0 0.0 1.6 0.00 0.00 0.00 93 1013.6
20260505115551 10 0 0.0 1.6 0.00 0.00 0.00 92 1013.5
20260505115050 9 0 0.0 1.6 0.00 0.00 0.00 93 1013.5
20260505114557 9 0 0.0 3.2 0.00 0.00 0.00 92 1013.3
20260505114046 9 0 0.0 3.2 0.00 0.00 0.00 92 1013.3
20260505113552 8 0 0.0 4.8 0.00 0.00 0.00 93 1013.4
20260505113050 8 0 0.0 4.8 0.00 0.00 0.00 93 1013.2
20260505112547 8 360 1.6 3.2 0.00 0.00 0.00 93 1013.3
20260505112047 8 0 0.0 3.2 0.00 0.00 0.00 93 1013.0
20260505111552 8 350 0.0 3.2 0.00 0.00 0.00 92 1013.0
20260505111048 8 350 0.0 1.6 0.00 0.00 0.00 92 1012.9
20260505110548 8 0 0.0 1.6 0.00 0.00 0.00 91 1012.7
20260505102048 8 0 0.0 0.0 0.00 0.00 0.00 90 1012.8
20260505101556 8 0 0.0 0.0 0.00 0.00 0.00 90 1012.8
20260505101048 9 0 0.0 0.0 0.00 0.00 0.00 88 1012.7
20260505100547 9 0 0.0 0.0 0.00 0.00 0.00 88 1012.7
20260505100055 9 0 0.0 0.0 0.00 0.00 0.00 88 1012.7
20260505095549 9 0 0.0 0.0 0.00 0.00 0.00 88 1012.6
20260505095046 10 0 0.0 0.0 0.00 0.00 0.00 89 1012.8
20260505094552 10 0 0.0 0.0 0.00 0.00 0.00 88 1012.7
20260505094048 10 0 0.0 1.6 0.00 0.00 0.00 88 1012.7
20260505093548 10 0 0.0 1.6 0.00 0.00 0.00 88 1012.8
20260505093050 10 0 0.0 1.6 0.00 0.00 0.00 88 1012.8
20260505092547 10 0 0.0 0.0 0.00 0.00 0.00 88 1012.8
20260505092048 10 0 0.0 0.0 0.00 0.00 0.00 87 1012.8
20260505091550 10 0 0.0 0.0 0.00 0.00 0.00 87 1012.8
20260505091048 10 0 0.0 1.6 0.00 0.00 0.00 87 1012.7
20260505090545 10 0 0.0 3.2 0.00 0.00 0.00 87 1012.7
20260505090100 10 0 0.0 3.2 0.00 0.00 0.00 87 1012.6
20260505085546 10 360 0.0 3.2 0.00 0.00 0.00 88 1012.6
20260505085046 10 0 1.6 3.2 0.00 0.00 0.00 89 1012.5
20260505084554 10 360 0.0 3.2 0.00 0.00 0.00 89 1012.5
20260505084047 10 0 0.0 3.2 0.00 0.00 0.00 90 1012.5
20260505083549 10 0 0.0 3.2 0.00 0.00 0.00 88 1012.4
20260505083056 10 0 0.0 3.2 0.00 0.00 0.00 88 1012.3
20260505082546 10 360 0.0 3.2 0.00 0.00 0.00 88 1012.3
20260505082049 10 360 0.0 1.6 0.00 0.00 0.00 86 1012.2
20260505081557 10 360 0.0 1.6 0.00 0.00 0.00 85 1012.2
20260505081046 10 0 0.0 3.2 0.00 0.00 0.00 85 1012.2
20260505080545 10 360 0.0 3.2 0.00 0.00 0.00 86 1012.2
20260505080054 10 0 1.6 3.2 0.00 0.00 0.00 86 1012.2
20260505075549 10 360 0.0 1.6 0.00 0.00 0.00 85 1012.2
20260505075049 10 0 0.0 1.6 0.00 0.00 0.00 84 1012.1
20260505074552 10 0 0.0 1.6 0.00 0.00 0.00 84 1012.1
20260505074048 10 0 0.0 1.6 0.00 0.00 0.00 84 1012.1
20260505073550 10 0 0.0 1.6 0.00 0.00 0.00 84 1012.2
20260505073053 10 0 0.0 1.6 0.00 0.00 0.00 85 1012.2
20260505072551 10 0 0.0 1.6 0.00 0.00 0.00 85 1012.2
20260505072048 11 0 0.0 3.2 0.00 0.00 0.00 85 1012.3
20260505071554 11 0 0.0 3.2 0.00 0.00 0.00 86 1012.3
20260505071048 11 360 0.0 3.2 0.00 0.00 0.00 86 1012.4
20260505070549 11 0 0.0 3.2 0.00 0.00 0.00 86 1012.3
20260505070051 11 0 0.0 3.2 0.00 0.00 0.00 86 1012.4
20260505065549 11 360 0.0 3.2 0.00 0.00 0.00 86 1012.5
20260505065046 11 0 0.0 1.6 0.00 0.00 0.00 84 1012.5
20260505064554 11 0 0.0 1.6 0.00 0.00 0.00 84 1012.5
20260505064046 11 0 0.0 0.0 0.00 0.00 0.00 85 1012.4
20260505063546 11 0 0.0 0.0 0.00 0.00 0.00 85 1012.4
20260505063052 11 0 0.0 0.0 0.00 0.00 0.00 85 1012.4
20260505062550 11 0 0.0 0.0 0.00 0.00 0.00 84 1012.4
20260505062048 11 0 0.0 4.8 0.00 0.00 0.00 83 1012.3
20260505061552 11 0 0.0 4.8 0.00 0.00 0.00 84 1012.3
20260505061049 11 360 1.6 4.8 0.00 0.00 0.00 84 1012.2
20260505060548 11 360 0.0 4.8 0.00 0.00 0.00 84 1012.3
20260505060056 11 360 1.6 4.8 0.00 0.00 0.00 83 1012.3
20260505055549 11 360 0.0 1.6 0.00 0.00 0.00 82 1012.2
20260505055049 12 0 0.0 1.6 0.00 0.00 0.00 81 1012.2
20260505054554 12 0 0.0 3.2 0.00 0.00 0.00 82 1012.1
20260505054048 12 0 0.0 3.2 0.00 0.00 0.00 81 1012.2
20260505053549 12 360 0.0 3.2 0.00 0.00 0.00 81 1012.2
20260505053105 12 0 0.0 4.8 0.00 0.00 0.00 82 1012.2
20260505052545 12 0 1.6 4.8 0.00 0.00 0.00 82 1012.1
20260505052046 12 0 0.0 3.2 0.00 0.00 0.00 82 1012.0
20260505051553 12 360 0.0 3.2 0.00 0.00 0.00 80 1011.9
20260505051050 12 360 0.0 3.2 0.00 0.00 0.00 81 1011.9
20260505050548 12 0 0.0 3.2 0.00 0.00 0.00 81 1011.9
20260505041553 14 0 0.0 1.6 0.00 0.00 0.00 73 1012.0
20260505041049 14 360 0.0 1.6 0.00 0.00 0.00 71 1011.9
20260505040553 15 0 0.0 1.6 0.00 0.00 0.00 71 1011.9
20260505040053 15 0 0.0 3.2 0.00 0.00 0.00 68 1011.9
20260505035549 15 0 0.0 3.2 0.00 0.00 0.00 69 1012.0
20260505035053 15 360 0.0 3.2 0.00 0.00 0.00 69 1012.0
20260505034550 15 360 1.6 3.2 0.00 0.00 0.00 69 1012.0
20260505034049 15 360 1.6 3.2 0.00 0.00 0.00 68 1012.1
20260505033548 15 0 0.0 3.2 0.00 0.00 0.00 67 1011.9
20260505033112 15 0 0.0 3.2 0.00 0.00 0.00 67 1011.9
20260505032548 15 0 0.0 3.2 0.00 0.00 0.00 67 1012.0
20260505032048 15 360 0.0 3.2 0.00 0.00 0.00 66 1012.2
20260505031556 15 0 0.0 3.2 0.00 0.00 0.00 67 1012.3
20260505031051 15 360 0.0 3.2 0.00 0.00 0.00 66 1012.1
20260505030553 16 0 0.0 1.6 0.00 0.00 0.00 66 1012.1
20260505030053 16 0 0.0 1.6 0.00 0.00 0.00 65 1012.2
20260505025546 16 0 0.0 1.6 0.00 0.00 0.00 66 1012.2
20260505025048 16 0 0.0 0.0 0.00 0.00 0.00 64 1012.2
20260505024600 16 0 0.0 1.6 0.00 0.00 0.00 63 1012.2
20260505024049 16 0 0.0 1.6 0.00 0.00 0.00 64 1012.3
20260505023549 16 0 0.0 1.6 0.00 0.00 0.00 63 1012.5
20260505023107 17 0 0.0 1.6 0.00 0.00 0.00 62 1012.5
20260505022551 17 0 0.0 1.6 0.00 0.00 0.00 62 1012.5
20260505022052 17 0 0.0 1.6 0.00 0.00 0.00 62 1012.5
20260505021553 17 0 0.0 3.2 0.00 0.00 0.00 61 1012.5
20260505021049 17 0 0.0 3.2 0.00 0.00 0.00 61 1012.5
20260505020549 17 0 0.0 1.6 0.00 0.00 0.00 60 1012.4
20260505020055 17 0 0.0 0.0 0.00 0.00 0.00 60 1012.3
20260505015547 17 0 0.0 1.6 0.00 0.00 0.00 59 1012.3
20260505015049 18 0 0.0 1.6 0.00 0.00 0.00 58 1012.4
20260505014552 18 0 0.0 1.6 0.00 0.00 0.00 58 1012.3
20260505014046 18 0 0.0 1.6 0.00 0.00 0.00 56 1012.2
20260505013546 18 0 0.0 1.6 0.00 0.00 0.00 56 1012.2
20260505013055 18 0 0.0 1.6 0.00 0.00 0.00 55 1012.1
20260505012548 19 0 0.0 4.8 0.00 0.00 0.00 55 1012.1
20260505012047 19 360 0.0 4.8 0.00 0.00 0.00 54 1012.0
20260505011558 19 0 0.0 4.8 0.00 0.00 0.00 53 1011.9
20260505011049 20 0 0.0 4.8 0.00 0.00 0.00 53 1011.9
20260505010548 20 0 0.0 4.8 0.00 0.00 0.00 52 1011.9
20260505010058 20 0 0.0 4.8 0.00 0.00 0.00 51 1011.8
20260505005545 20 0 0.0 1.6 0.00 0.00 0.00 51 1011.8
20260505005049 20 0 0.0 1.6 0.00 0.00 0.00 50 1011.6
20260505004559 20 0 0.0 1.6 0.00 0.00 0.00 50 1011.6
20260505004053 21 360 0.0 4.8 0.00 0.00 0.00 49 1011.6
20260505003549 21 0 0.0 4.8 0.00 0.00 0.00 48 1011.7
20260505003057 21 360 0.0 4.8 0.00 0.00 0.00 48 1011.6
20260505002548 21 0 0.0 4.8 0.00 0.00 0.00 47 1011.6
20260505002047 21 360 0.0 4.8 0.00 0.00 0.00 47 1011.6
20260505001553 22 360 1.6 4.8 0.00 0.00 0.00 47 1011.6
20260505001046 22 0 0.0 4.8 0.00 0.00 0.00 47 1011.6
20260505000553 22 360 1.6 9.7 0.00 0.00 0.00 47 1011.6
20260505000059 22 360 0.0 9.7 0.00 0.00 0.00 46 1011.6
20260504235549 22 360 1.6 9.7 0.00 0.00 0.00 45 1011.5
20260504235049 22 360 3.2 16.1 0.00 0.00 0.00 45 1011.6
20260504234617 22 360 1.6 16.1 0.00 0.00 0.00 46 1011.4
20260504234045 23 360 3.2 14.5 0.00 0.00 0.00 46 1011.2
20260504233546 23 360 4.8 12.9 0.00 0.00 0.00 45 1011.2
20260504233056 23 360 3.2 9.7 0.00 0.00 0.00 46 1011.2
20260504232546 23 360 3.2 9.7 0.00 0.00 0.00 46 1011.1
20260504232049 23 254 1.6 11.3 0.00 0.00 0.00 47 1011.2
20260504231556 23 263 1.6 11.3 0.00 0.00 0.00 48 1011.1
20260504231049 23 360 1.6 6.4 0.00 0.00 0.00 47 1011.1
20260504230549 23 360 0.0 6.4 0.00 0.00 0.00 46 1011.2
20260504230053 23 360 1.6 12.9 0.00 0.00 0.00 46 1011.2
20260504225546 23 360 1.6 12.9 0.00 0.00 0.00 46 1011.2
20260504225049 23 360 3.2 12.9 0.00 0.00 0.00 46 1011.3
20260504224600 23 360 3.2 16.1 0.00 0.00 0.00 46 1011.3
20260504224050 23 360 3.2 16.1 0.00 0.00 0.00 46 1011.3
20260504223546 24 360 4.8 16.1 0.00 0.00 0.00 45 1011.3
20260504223052 24 360 3.2 14.5 0.00 0.00 0.00 45 1011.3
20260504222549 24 274 3.2 17.7 0.00 0.00 0.00 45 1011.3
20260504222049 24 204 4.8 17.7 0.00 0.00 0.00 44 1011.2
20260504221602 24 234 3.2 17.7 0.00 0.00 0.00 45 1011.3
20260504221049 24 307 4.8 20.9 0.00 0.00 0.00 45 1011.4
20260504220549 25 234 9.7 22.5 0.00 0.00 0.00 43 1011.3
20260504220058 25 244 8.0 22.5 0.00 0.00 0.00 44 1011.3
20260504215549 25 194 8.0 22.5 0.00 0.00 0.00 42 1011.4
20260504215047 25 230 14.5 24.1 0.00 0.00 0.00 42 1011.3
20260504214556 25 360 8.0 24.1 0.00 0.00 0.00 42 1011.4
20260504214048 25 278 11.3 25.7 0.00 0.00 0.00 41 1011.2
20260504213548 25 260 14.5 25.7 0.00 0.00 0.00 43 1011.4
20260504213103 25 212 8.0 20.9 0.00 0.00 0.00 43 1011.3
20260504212548 25 276 6.4 25.7 0.00 0.00 0.00 42 1011.4
20260504212045 25 196 11.3 25.7 0.00 0.00 0.00 41 1011.5
20260504211553 25 196 11.3 24.1 0.00 0.00 0.00 40 1011.3
20260504211048 25 243 3.2 17.7 0.00 0.00 0.00 44 1011.5
20260504210546 25 255 4.8 19.3 0.00 0.00 0.00 42 1011.6
20260504210057 25 238 4.8 24.1 0.00 0.00 0.00 43 1011.5
20260504205551 25 254 9.7 24.1 0.00 0.00 0.00 42 1011.7
20260504205053 25 275 3.2 19.3 0.00 0.00 0.00 42 1011.7
20260504204636 25 198 6.4 19.3 0.00 0.00 0.00 43 1011.8
20260504204048 25 251 4.8 29.0 0.00 0.00 0.00 42 1011.9
20260504203552 25 234 12.9 29.0 0.00 0.00 0.00 44 1011.9
20260504203051 25 258 14.5 22.5 0.00 0.00 0.00 44 1011.9
20260504202548 25 360 4.8 22.5 0.00 0.00 0.00 45 1012.0
20260504202049 26 360 12.9 22.5 0.00 0.00 0.00 43 1012.0
20260504201556 26 273 4.8 11.3 0.00 0.00 0.00 40 1012.1
20260504201048 26 197 3.2 22.5 0.00 0.00 0.00 41 1012.1
20260504200548 26 222 4.8 22.5 0.00 0.00 0.00 41 1012.2
20260504200057 26 221 11.3 20.9 0.00 0.00 0.00 42 1012.2
20260504195547 26 274 4.8 17.7 0.00 0.00 0.00 42 1012.2
20260504195049 27 212 4.8 17.7 0.00 0.00 0.00 43 1012.4
20260504194556 27 203 3.2 11.3 0.00 0.00 0.00 45 1012.4
20260504194046 26 202 3.2 20.9 0.00 0.00 0.00 44 1012.5
20260504193546 26 258 3.2 20.9 0.00 0.00 0.00 44 1012.6
20260504193055 26 296 3.2 17.7 0.00 0.00 0.00 46 1012.7
20260504192545 26 360 6.4 17.7 0.00 0.00 0.00 43 1012.8
20260504192048 26 360 6.4 14.5 0.00 0.00 0.00 44 1012.9
20260504191559 26 360 4.8 12.9 0.00 0.00 0.00 43 1012.9
20260504191047 26 360 4.8 9.7 0.00 0.00 0.00 42 1013.0
20260504190547 26 360 1.6 17.7 0.00 0.00 0.00 46 1013.1
20260504190100 26 360 3.2 20.9 0.00 0.00 0.00 46 1013.2
20260504185546 26 360 8.0 20.9 0.00 0.00 0.00 46 1013.3
20260504185048 26 360 4.8 16.1 0.00 0.00 0.00 44 1013.2
20260504184604 26 360 4.8 19.3 0.00 0.00 0.00 46 1013.4
20260504184048 26 360 1.6 20.9 0.00 0.00 0.00 46 1013.4
20260504183546 26 360 9.7 20.9 0.00 0.00 0.00 46 1013.5
20260504183059 26 360 9.7 20.9 0.00 0.00 0.00 44 1013.6
20260504182550 26 360 3.2 14.5 0.00 0.00 0.00 44 1013.7
20260504182045 26 360 6.4 14.5 0.00 0.00 0.00 45 1013.9
20260504181551 26 360 3.2 19.3 0.00 0.00 0.00 45 1013.8
20260504181048 26 360 3.2 19.3 0.00 0.00 0.00 45 1013.8
20260504180546 26 360 6.4 24.1 0.00 0.00 0.00 43 1014.0
20260504180054 26 360 8.0 24.1 0.00 0.00 0.00 43 1014.0
20260504175549 26 360 6.4 14.5 0.00 0.00 0.00 45 1014.0
20260504175047 26 360 1.6 14.5 0.00 0.00 0.00 47 1013.9
20260504174555 25 360 4.8 25.7 0.00 0.00 0.00 44 1014.0
20260504174047 26 360 11.3 25.7 0.00 0.00 0.00 44 1014.0
20260504173546 26 360 4.8 16.1 0.00 0.00 0.00 43 1014.1
20260504173054 26 360 4.8 16.1 0.00 0.00 0.00 42 1014.2
20260504172547 26 360 4.8 14.5 0.00 0.00 0.00 43 1014.3
20260504172046 27 360 3.2 14.5 0.00 0.00 0.00 43 1014.4
20260504171556 26 360 3.2 14.5 0.00 0.00 0.00 42 1014.4
20260504171046 26 360 3.2 17.7 0.00 0.00 0.00 43 1014.4
20260504170545 26 360 3.2 17.7 0.00 0.00 0.00 44 1014.5